Torna al catalogo

COSMOS 2535

AttivoNavigazioneSSO
NORAD 44421·PAYLOAD·🇷🇺 Russia

Lanciato Jul 10, 2019 da Plesetsk Cosmodrome

Loading…

Prossimi Passaggi (prossime 24 ore)

TLE

AggiornatoSource: Space-Track

Epoca: Sep 15, 2026, 00:13 UTC

1 44421U 19039A   26258.00921167  .00000673  00000-0  71535-4 0  9997
2 44421  97.5729 282.7245 0006667 274.5363  85.5095 14.92084919390035

Traccia COSMOS 2535 in tempo reale con AllMySat

Download on the App Store